THOR ABLESTAR DEB, 124

Orbit data source: Space-Track

THOR ABLESTAR DEB, 124 is space debris in LEO originally from a launch on Thu, 29 Jun 1961 UTC launched from the Air Force Eastern Test Range (AFETR). Debris objects in space refer to the collection of defunct objects orbiting the Earth. Examples of debris include non-operational satellites, rocket bodies, and fragments generated from explosions, collisions, or faulty payload assembly.

Loading next visibility...
Identifier
124, 1961-015J
Orbit
LEO
Country
Flag of USUS
Related business
Manufacturer
Unknown
Mission
Spacecraft
Bus & Motor
Unknown
Mass
Unknown
Launch date (UTC)
1961-06-29 (64 years ago)
Launch vehicle
Unknown
Launch site
Air Force Eastern Test Range (AFETR)
Object type
Payload
Rocket body
Debris
Shape & HBR
Unknown shape, 0.2 m
Radar Cross Section
Small (<0.1 m²)

Expand to show TLE details & history
Last TLE update: 16 hours ago

TLE from 16 hours ago
0 THOR ABLESTAR DEB
1 00124U 61015J   25287.86252841  .00001179  00000-0  42710-3 0  9995
2 00124  66.5442 175.4250 0076574 298.8290  60.5137 14.35328528323716
Epoch: 2025-10-14T20:42Z
TLE epoch observation values (Epoch: 2025-10-14T20:42:02.454Z)
Latitude
-0.00003°
Longitude
-158.7301°
Altitude
749.435 km
Speed
7.494 km/s
True Right ascension
11h 41m 41s
True Declination
0° 00' 00"
Sunlit
Object was in daylight at epoch
Visualization orbit readout
Latitude
Unknown
Longitude
Unknown
Altitude
Unknown
Speed
Unknown
Apparent Right ascension
Unknown
Apparent Declination
Unknown
Sunlit
N/A
Visualization observer readout
Local Sidereal Time
07:13:09
Azimuth
Unknown
Elevation
Unknown
Doppler factor
Unknown
Orbital elements
Apogee altitude
827.118 km
Perigee altitude
717.61 km
Semi-major axis
7,150.501 km
Eccentricity
0.00766
Inclination
66.5442°
RAAN
175.425°
Arg. of periapsis
298.829°
True anomaly
61.28111°
Mean anomaly
60.5137°
Eccentric anomaly
60.89704°
Mean motion
3.58954 °/min
Orbital period
100.29 mins
BSTAR
0.0004271

Documentation

Showing up to 5 results
|